AirNav   Everest Fuels
 
 996 users online  

KADT Atwood-Rawlins County City-County Airport
Atwood, Kansas, USA

GOING TO ATWOOD?


FAA INFORMATION EFFECTIVE 21 MAY 2020

Location

FAA Identifier: ADT
Lat/Long: 39-50-25.2186N 101-02-32.9385W
39-50.420310N 101-02.548975W
39.8403385,-101.0424829
(estimated)
Elevation: 2990.7 ft. / 911.6 m (surveyed)
Variation: 09E (1985)
From city: 2 miles N of ATWOOD, KS
Time zone: UTC -5 (UTC -6 during Standard Time)
Zip code: 67730

Airport Operations

Airport use: Open to the public
Activation date: 12/1946
Control tower: no
ARTCC: DENVER CENTER
FSS: WICHITA FLIGHT SERVICE STATION
NOTAMs facility: ICT (NOTAM-D service available)
Attendance: UNATNDD
Wind indicator: lighted, LGTD WIND CONES LCTD 1000 FT FM AER 16 & 34, LEFT SIDE.
Segmented circle: yes
Lights: ACTVT REIL RWY 16 & 34; PAPI RWYS 16 & 34; MIRL RWY 16/34 - CTAF.
Beacon: white-green (lighted land airport)
Operates sunset to sunrise.

Airport Communications

CTAF/UNICOM: 122.7
WX AWOS-3: 118.675 (785-626-3572)
  • APCH/DEP SVC PRVDD BY DENVER ARTCC ON FREQS 132.7/226.675 (GOODLAND RCAG).

Nearby radio navigation aids

VOR radial/distance  VOR name  Freq  Var
MCKr215/30.0MC COOK VOR/DME115.3008E
HCTr177/37.2HAYES CENTER VORTAC117.7011E

 
NDB name  Hdg/Dist  Freq  Var  ID
WHEATFIELD353/19.840808EJDM .--- -.. --
OBERLIN266/23.334106EOIN --- .. -.
ST FRANCIS073/34.138606ESYF ... -.-- ..-.

Airport Services

Fuel available: 100LL
24 HR SELF-SERVE FUEL.
Parking: hangars and tiedowns
Bottled oxygen: NONE
Bulk oxygen: NONE

Runway Information

Runway 16/34

Dimensions: 5000 x 75 ft. / 1524 x 23 m
Surface: asphalt, in good condition
Weight bearing capacity: 
Single wheel: 12.5
Double wheel: 12.5
Runway edge lights: medium intensity
RUNWAY 16  RUNWAY 34
Latitude: 39-50.894647N39-50.077330N
Longitude: 101-02.659207W101-02.530767W
Elevation: 2990.7 ft.2926.7 ft.
Traffic pattern: leftleft
Runway heading: 164 magnetic, 173 true344 magnetic, 353 true
Markings: nonprecision, in good conditionnonprecision, in good condition
Visual slope indicator: 2-light PAPI on left (3.00 degrees glide path)2-light PAPI on right (3.00 degrees glide path)
Runway end identifier lights: yesyes
Touchdown point: yes, no lightsyes, no lights

Runway 3/21

Dimensions: 2400 x 100 ft. / 732 x 30 m
Surface: turf, in good condition
ACUTE DIFFERENCE IN SFC ELEV AT INT WITH RWY 16/34. SUG OPS BE CONDUCTED E OF THAT INT.
RUNWAY 3  RUNWAY 21
Latitude: 39-50.144942N39-50.422017N
Longitude: 101-02.635977W101-02.270257W
Elevation: 2929.5 ft.2946.3 ft.
Traffic pattern: leftleft
Runway heading: 037 magnetic, 046 true217 magnetic, 226 true
Touchdown point: yes, no lightsyes, no lights
Obstructions: 28 ft. pline, marked, 950 ft. from runway, 33:1 slope to clearnone

Airport Ownership and Management from official FAA records

Ownership: Publicly-owned
Owner: CITY OF ATWOOD & RAWLINS CO.
ATWOOD, KS 67730
Phone 785-626-3344
Manager: CHRIS TIEMEYER
12323 HWY 25
ATWOOD, KS 67730
Phone (785) 626-0297

Airport Operational Statistics

Aircraft based on the field: 14
Single engine airplanes: 13
Multi engine airplanes: 1
    
Aircraft operations: avg 33/day *
67% local general aviation
33% transient general aviation
* for 12-month period ending 16 September 2018

Additional Remarks

PUBLIC PHONE AVBL 24 HRS.
FOR CD CTC DENVER ARTCC AT 303-651-4257.

Instrument Procedures

NOTE: All procedures below are presented as PDF files. If you need a reader for these files, you should download the free Adobe Reader.

NOT FOR NAVIGATION. Please procure official charts for flight.
FAA instrument procedures published for use from 21 May 2020 at 0901Z to 18 June 2020 at 0900Z.

 
IAPs - Instrument Approach Procedures
RNAV (GPS) RWY 16   download (251KB)
NOTE: Special Take-Off Minimums/Departure Procedures apply   download (147KB)

Other nearby airports with instrument procedures:

KOIN - Oberlin Municipal Airport (23 nm E)
KCBK - Shalz Field Airport (25 nm S)
KMCK - Mc Cook Ben Nelson Regional Airport (30 nm NE)
KSYF - Cheyenne County Municipal Airport (35 nm W)
KGLD - Renner Field (Goodland Municipal Airport) (41 nm SW)
 
Loc | Ops | Rwys | IFR | FBO | Links
Com | Nav | Svcs | Stats | Notes

AirBoss

 
Area around KADT (Atwood-Rawlins County City-County Airport)
 
Road maps at: MapQuest Bing Google
 
Aerial photo
WARNING: Photo may not be current or correct
Aerial photo of KADT (Atwood-Rawlins County City-County Airport)
Photo taken 05-Jul-2013
looking south.

Do you have a better or more recent aerial photo of Atwood-Rawlins County City-County Airport that you would like to share? If so, please send us your photo.

 
Sectional chart

 
Airport distance calculator
Flying to Atwood-Rawlins County City-County Airport? Find the distance to fly.

From to KADT

Sunrise and sunset
Times for 01-Jun-2020
 Local
(UTC-5)
 Zulu
(UTC)
Morning civil twilight05:4610:46
Sunrise06:1811:18
Sunset21:0602:06
Evening civil twilight21:3802:38

Current date and time
Zulu (UTC)  01-Jun-2020 23:57:58
Local (UTC-5)  01-Jun-2020 18:57:58
 
METAR
KOIN 
23nm E 
012355Z AUTO 18013KT 10SM CLR 34/12 A2990 RMK AO1 T03410117
KCBK 
24nm S 
012335Z AUTO 17020G29KT 10SM CLR 35/03 A2991 RMK AO2 PWINO
KMCK 
30nm NE 
012353Z AUTO 17010G20KT 10SM CLR 34/13 A2984 RMK AO2 SLP073 T03440133 10361 20317 56009
KSYF 
36nm W 
012355Z AUTO 16015G18KT 10SM SCT120 34/05 A2988 RMK AO2 T03350053 10366 20335 PWINO
KGLD 
42nm SW 
012353Z AUTO 16020G31KT 10SM CLR 34/08 A2990 RMK AO2 PK WND 16035/2341 SLP075 T03390083 10356 20328 56012
KOEL 
45nm S 
012335Z AUTO 20017G26KT 10SM CLR 33/08 A2992 RMK AO1 T03330084
TAF
KMCK 
30nm NE 
011720Z 0118/0218 19012G19KT P6SM FEW130 FEW250 FM012300 16011KT P6SM FEW120 SCT250 FM020600 20010KT P6SM SCT250 WS020/22040KT FM020900 21006KT P6SM FEW250 FM021500 27008KT P6SM SCT120 SCT280
NOTAMs
Click for the latest NOTAMs
NOTAMs are issued by the DoD/FAA and will open in a separate window not controlled by AirNav.

 

 
 

FBO, Fuel Providers, and Aircraft Ground Support

  
 Business Name 
 
 Contact 
 
 Services / Description 
 
Fuel Prices
 
Comments
  
Atwood/Rawlins County Airport 785-626-9014
785-626-9462
[email]
Aviation fuel, Aircraft parking (ramp or tiedown), Hangars, Hangar leasing / sales, Passenger terminal and lounge, Courtesy transportation, Public telephone, ...
 
Courtesy car  
 
More info about Atwood/Rawlins County Airport
independent
100LL
SS $4.30 
 Updated 28-May-2020
 
   write
SS=Self service
Update Fuel Prices
 

Would you like to see your business listed on this page?

 If your business provides an interesting product or service to pilots, flight crews, aircraft, or users of the Atwood-Rawlins County City-County Airport, you should consider listing it here.  To start the listing process, click on the button below
 
Add a business
 

Other Pages about Atwood-Rawlins County City-County Airport

Update a link
 
Copyright © AirNav, LLC. All rights reserved. Privacy Policy  Contact